This is the latest recevied weather packets stored in our database for station/object NW5W-12. If no packets are shown the sender has not sent any weather packets the latest 10 day(s).
| Time | Temp. | Humidity | Pressure | Rain* | Wind** | Luminosity | Snow |
|---|---|---|---|---|---|---|---|
| 1778167842 | 10.56° C | 38% | 1020.3 hPa | 0 mm | - | - | - |
| 1778167542 | 10.56° C | 36% | 1020.3 hPa | 0 mm | - | - | - |
| 1778167242 | 10° C | 39% | 1020.3 hPa | 0 mm | - | - | - |
| 1778166943 | 9.44° C | 38% | 1020.3 hPa | 0 mm | - | - | - |
| 1778166642 | 9.44° C | 40% | 1020.3 hPa | 0 mm | - | - | - |
| 1778166342 | 8.89° C | 42% | 1020.3 hPa | 0 mm | - | - | - |
| 1778166042 | 8.89° C | 43% | 1020.2 hPa | 0 mm | - | - | - |
| 1778165742 | 8.89° C | 42% | 1020.3 hPa | 0 mm | - | - | - |
| 1778165443 | 8.89° C | 40% | 1020.2 hPa | 0 mm | - | - | - |
| 1778165142 | 8.89° C | 38% | 1020.2 hPa | 0 mm | - | - | - |
| 1778164842 | 9.44° C | 37% | 1020.2 hPa | 0 mm | - | - | - |
| 1778164542 | 9.44° C | 37% | 1020.2 hPa | 0 mm | - | - | - |
| 1778164242 | 9.44° C | 36% | 1020.2 hPa | 0 mm | - | - | - |
| 1778163942 | 9.44° C | 36% | 1020.2 hPa | 0 mm | - | - | - |
| 1778163642 | 9.44° C | 34% | 1020.1 hPa | 0 mm | - | - | - |
| 1778163342 | 9.44° C | 35% | 1020.1 hPa | 0 mm | - | - | - |
| 1778163042 | 9.44° C | 35% | 1020.1 hPa | 0 mm | - | - | - |
| 1778162742 | 8.89° C | 36% | 1020.1 hPa | 0 mm | - | - | - |
| 1778162442 | 8.33° C | 37% | 1020.2 hPa | 0 mm | - | - | - |
| 1778162142 | 8.33° C | 38% | 1020.1 hPa | 0 mm | - | - | - |
| 1778161842 | 7.78° C | 38% | 1020.1 hPa | 0 mm | - | - | - |
| 1778161542 | 8.33° C | 38% | 1020.1 hPa | 0 mm | - | - | - |
| 1778161242 | 7.78° C | 36% | 1020.1 hPa | 0 mm | - | - | - |
| 1778160942 | 7.78° C | 37% | 1020 hPa | 0 mm | - | - | - |
| 1778160642 | 7.22° C | 39% | 1020 hPa | 0 mm | - | - | - |
* Rain since midnight (hover to see other rain measurements)
** Current wind speed in m/s (hover to see current wind gust speed)